CW9803 Weather Reports


time (UTC)temp
F
wind
direction
speed
knots
gust
knots
rain 1hr
in
rain 24hr
in
rain mn
in
humidity
%
barometer
mb
20260506002948 75 244 3.5 6.1 0.00 0.00 0.00 33 1008.6
20260506002445 75 346 5.2 7.0 0.00 0.00 0.00 30 1008.8
20260506001940 75 335 5.2 8.7 0.00 0.00 0.00 32 1008.5
20260506001438 75 353 5.2 7.8 0.00 0.00 0.00 32 1008.8
20260506000935 75 27 4.3 6.1 0.00 0.00 0.00 32 1008.8
20260506000432 76 310 5.2 8.7 0.00 0.00 0.00 30 1008.8
20260505235929 76 350 3.5 5.2 0.00 0.00 0.00 31 1008.7
20260505235427 76 206 4.3 5.2 0.00 0.00 0.00 28 1008.5
20260505234924 76 326 7.8 9.6 0.00 0.00 0.00 27 1009.0
20260505234421 76 301 3.5 3.5 0.00 0.00 0.00 29 1008.7
20260505233918 75 188 3.5 5.2 0.00 0.00 0.00 30 1008.7
20260505233416 76 183 2.6 6.1 0.00 0.00 0.00 32 1008.8
20260505232913 75 349 3.5 5.2 0.00 0.00 0.00 31 1008.6
20260505232411 76 328 3.5 6.1 0.00 0.00 0.00 31 1008.7
20260505231907 76 113 5.2 7.8 0.00 0.00 0.00 31 1008.6
20260505231405 76 99 6.1 8.7 0.00 0.00 0.00 30 1008.7
20260505230903 76 25 3.5 3.5 0.00 0.00 0.00 33 1008.5
20260505230400 77 221 4.3 5.2 0.00 0.00 0.00 34 1008.8
20260505225856 76 350 4.3 7.0 0.00 0.00 0.00 34 1008.6
20260505225354 77 214 3.5 3.5 0.00 0.00 0.00 34 1008.5
20260505224849 76 306 5.2 6.1 0.00 0.00 0.00 35 1008.6
20260505224347 76 148 1.7 1.7 0.00 0.00 0.00 35 1008.5
20260505223843 77 259 5.2 6.1 0.00 0.00 0.00 35 1008.8
20260505223340 77 265 5.2 7.8 0.00 0.00 0.00 33 1008.7
20260505222836 77 300 5.2 7.0 0.00 0.00 0.00 33 1008.6
20260505222332 77 7 2.6 3.5 0.00 0.00 0.00 33 1008.6
20260505221830 76 298 4.3 5.2 0.00 0.00 0.00 33 1008.8
20260505221326 77 210 4.3 6.1 0.00 0.00 0.00 33 1008.6
20260505220823 76 318 10.4 14.8 0.00 0.00 0.00 33 1008.7
20260505220320 76 275 6.1 9.6 0.00 0.00 0.00 34 1008.6
20260505215819 76 297 7.0 8.7 0.00 0.00 0.00 34 1008.8
20260505215316 77 151 4.3 6.1 0.00 0.00 0.00 35 1008.7
20260505214814 76 300 3.5 5.2 0.00 0.00 0.00 34 1009.0
20260505214311 77 311 7.8 8.7 0.00 0.00 0.00 35 1009.0
20260505213808 76 303 4.3 6.1 0.00 0.00 0.00 35 1008.7
20260505213306 76 353 3.5 3.5 0.00 0.00 0.00 34 1009.0
20260505212801 76 322 8.7 11.3 0.00 0.00 0.00 36 1008.6
20260505212259 76 264 5.2 7.0 0.00 0.00 0.00 36 1008.7
20260505211755 76 326 3.5 5.2 0.00 0.00 0.00 36 1008.7
20260505211253 75 147 3.5 5.2 0.00 0.00 0.00 36 1008.6
20260505210749 75 285 4.3 6.1 0.00 0.00 0.00 36 1008.7
20260505210246 76 301 3.5 5.2 0.00 0.00 0.00 35 1008.6
20260505205743 77 353 3.5 5.2 0.00 0.00 0.00 36 1008.7
20260505205242 74 7 3.5 5.2 0.00 0.00 0.00 37 1008.8
20260505204738 76 231 3.5 3.5 0.00 0.00 0.00 35 1009.1
20260505204236 74 301 2.6 2.6 0.00 0.00 0.00 38 1008.7
20260505203732 74 336 2.6 2.6 0.00 0.00 0.00 37 1008.6
20260505203230 74 48 3.5 5.2 0.00 0.00 0.00 37 1008.8
20260505202725 72 43 1.7 1.7 0.00 0.00 0.00 40 1009.0
20260505202221 73 16 2.6 3.5 0.00 0.00 0.00 41 1008.7
20260505201718 73 29 1.7 3.5 0.00 0.00 0.00 39 1009.1
20260505201216 73 126 1.7 1.7 0.00 0.00 0.00 39 1009.0
20260505200714 74 329 4.3 5.2 0.00 0.00 0.00 40 1008.8
20260505200211 75 76 0.9 0.9 0.00 0.00 0.00 38 1008.7
20260505195706 75 174 2.6 2.6 0.00 0.00 0.00 38 1008.6
20260505195204 75 89 0.9 1.7 0.00 0.00 0.00 38 1009.0
20260505194701 75 337 6.1 7.8 0.00 0.00 0.00 38 1009.2
20260505194157 75 154 2.6 3.5 0.00 0.00 0.00 38 1009.0
20260505193653 74 250 1.7 2.6 0.00 0.00 0.00 37 1009.1
20260505193151 74 97 0.9 0.9 0.00 0.00 0.00 36 1009.1
20260505192649 75 82 1.7 1.7 0.00 0.00 0.00 36 1009.1
20260505192146 76 123 0.9 0.9 0.00 0.00 0.00 35 1009.2
20260505191645 76 271 1.7 1.7 0.00 0.00 0.00 34 1009.2
20260505191143 75 110 0.9 0.9 0.00 0.00 0.00 33 1009.1
20260505190638 74 68 2.6 5.2 0.00 0.00 0.00 33 1009.3
20260505190133 73 91 0.9 0.9 0.00 0.00 0.00 33 1009.3
20260505185630 74 158 1.7 2.6 0.00 0.00 0.00 33 1009.1
20260505185126 74 143 0.0 0.0 0.00 0.00 0.00 32 1008.8
20260505184623 73 177 0.9 0.9 0.00 0.00 0.00 33 1009.0
20260505184120 75 152 0.9 0.9 0.00 0.00 0.00 30 1009.3
20260505183616 75 106 1.7 1.7 0.00 0.00 0.00 29 1009.1
20260505183114 75 123 1.7 3.5 0.00 0.00 0.00 27 1009.1
20260505182610 75 147 4.3 6.1 0.00 0.00 0.00 29 1009.2
20260505182107 74 114 0.9 0.9 0.00 0.00 0.00 30 1009.2
20260505181604 74 98 0.9 1.7 0.00 0.00 0.00 29 1009.4
20260505181101 75 103 1.7 2.6 0.00 0.00 0.00 31 1009.3
20260505180556 76 134 0.0 0.0 0.00 0.00 0.00 32 1009.2
20260505180055 75 130 0.9 0.9 0.00 0.00 0.00 31 1009.1
20260505175550 75 124 0.0 0.9 0.00 0.00 0.00 32 1009.0
20260505175046 75 185 0.0 0.0 0.00 0.00 0.00 34 1009.1
20260505174544 74 134 0.0 0.0 0.00 0.00 0.00 35 1009.2
20260505174039 72 106 0.9 0.9 0.00 0.00 0.00 38 1009.2
20260505173536 71 75 0.9 1.7 0.00 0.00 0.00 42 1009.2
20260505173033 72 137 0.0 0.0 0.00 0.00 0.00 41 1009.1
20260505172531 73 128 0.0 0.0 0.00 0.00 0.00 42 1009.2
20260505172027 71 109 0.9 0.9 0.00 0.00 0.00 45 1009.3
20260505171522 70 150 0.0 0.9 0.00 0.00 0.00 48 1009.1
20260505171020 69 78 1.7 2.6 0.00 0.00 0.00 47 1009.3
20260505170516 69 118 0.0 0.0 0.00 0.00 0.00 48 1009.5
20260505170012 69 141 0.0 0.9 0.00 0.00 0.00 49 1009.2
20260505165508 66 220 0.9 1.7 0.00 0.00 0.00 53 1009.4
20260505165004 67 167 0.9 1.7 0.00 0.00 0.00 52 1009.2
20260505164500 67 137 0.9 0.9 0.00 0.00 0.00 51 1009.3
20260505163958 67 79 1.7 1.7 0.00 0.00 0.00 51 1009.4
20260505163456 65 118 0.0 0.0 0.00 0.00 0.00 54 1009.3
20260505162956 63 150 0.9 0.9 0.00 0.00 0.00 57 1009.3
20260505162451 63 153 0.9 0.9 0.00 0.00 0.00 58 1009.5
20260505161947 62 100 0.0 0.9 0.00 0.00 0.00 58 1009.4
20260505161439 63 142 0.0 0.9 0.00 0.00 0.00 59 1009.5
20260505160936 63 262 0.0 1.7 0.00 0.00 0.00 58 1009.5
20260505160435 60 118 0.0 0.0 0.00 0.00 0.00 63 1009.5
20260505152910 58 98 0.9 0.9 0.00 0.00 0.00 67 1009.7
20260505152402 57 132 0.0 0.0 0.00 0.00 0.00 69 1009.7
20260505151901 55 136 0.0 0.0 0.00 0.00 0.00 72 1009.8
20260505151358 54 137 0.0 0.0 0.00 0.00 0.00 76 1009.6
20260505150855 53 127 0.9 0.9 0.00 0.00 0.00 77 1009.4
20260505150352 52 133 0.9 0.9 0.00 0.00 0.00 80 1009.6
20260505140311 48 114 0.0 0.0 0.00 0.00 0.00 86 1009.1
20260505130234 41 119 0.0 0.0 0.00 0.00 0.00 95 1008.5
20260505124725 40 143 0.0 0.0 0.00 0.00 0.00 95 1008.2
20260505124222 40 143 0.0 0.0 0.00 0.00 0.00 95 1008.4
20260505123717 40 143 0.0 0.0 0.00 0.00 0.00 95 1008.5
20260505123214 40 143 0.0 0.0 0.00 0.00 0.00 95 1008.3
20260505122711 40 143 0.0 0.0 0.00 0.00 0.00 95 1008.4
20260505122208 40 143 0.0 0.0 0.00 0.00 0.00 95 1008.3
20260505121705 40 143 0.0 0.0 0.00 0.00 0.00 95 1008.1
20260505121201 41 111 0.0 0.0 0.00 0.00 0.00 95 1008.2
20260505120657 41 111 0.0 0.0 0.00 0.00 0.00 95 1008.3
20260505120153 41 113 0.0 0.0 0.00 0.00 0.00 95 1008.2
20260505115647 41 113 0.0 0.0 0.00 0.00 0.00 95 1007.9
20260505115145 41 113 0.0 0.0 0.00 0.00 0.00 95 1008.1
20260505114642 41 113 0.0 0.0 0.00 0.00 0.00 95 1008.2
20260505114138 41 113 0.0 0.0 0.00 0.00 0.00 95 1008.2
20260505113635 42 113 0.0 0.0 0.00 0.00 0.00 95 1008.3
20260505113131 42 113 0.0 0.0 0.00 0.00 0.00 95 1008.1
20260505112628 42 113 0.0 0.0 0.00 0.00 0.00 94 1008.3
20260505112126 42 113 0.0 0.0 0.00 0.00 0.00 94 1008.1
20260505111625 42 113 0.0 0.0 0.00 0.00 0.00 94 1008.0
20260505111122 41 111 0.0 0.0 0.00 0.00 0.00 94 1008.0
20260505110618 42 111 0.0 0.0 0.00 0.00 0.00 94 1008.0
20260505110115 42 111 0.0 0.0 0.00 0.00 0.00 94 1007.9
20260505102051 43 110 0.0 0.0 0.00 0.00 0.00 92 1007.4
20260505101549 43 110 0.0 0.0 0.00 0.00 0.00 91 1007.4
20260505101045 43 108 0.0 0.9 0.00 0.00 0.00 91 1007.3
20260505100542 44 106 0.0 0.0 0.00 0.00 0.00 91 1007.5
20260505100039 43 134 0.0 0.0 0.00 0.00 0.00 91 1007.5
20260505095535 44 145 0.0 0.0 0.00 0.00 0.00 90 1007.7
20260505095031 44 156 0.0 0.0 0.00 0.00 0.00 90 1007.7
20260505094528 44 118 0.0 0.0 0.00 0.00 0.00 91 1007.4
20260505094024 44 114 0.0 0.0 0.00 0.00 0.00 91 1007.2
20260505093521 44 113 0.0 0.0 0.00 0.00 0.00 91 1007.4
20260505093018 44 138 0.0 0.0 0.00 0.00 0.00 90 1007.3
20260505092516 44 141 0.0 0.0 0.00 0.00 0.00 90 1007.4
20260505092014 45 151 0.0 0.0 0.00 0.00 0.00 89 1007.3
20260505091511 45 159 0.0 0.0 0.00 0.00 0.00 89 1007.2
20260505091009 45 154 0.0 0.0 0.00 0.00 0.00 90 1007.3
20260505090506 45 120 0.0 0.0 0.00 0.00 0.00 90 1007.4
20260505090004 45 115 0.0 0.0 0.00 0.00 0.00 90 1007.3
20260505085502 45 115 0.0 0.0 0.00 0.00 0.00 90 1007.3
20260505085000 45 113 0.0 0.0 0.00 0.00 0.00 90 1007.2
20260505084458 45 116 0.0 0.0 0.00 0.00 0.00 90 1007.2
20260505083955 45 149 0.0 0.0 0.00 0.00 0.00 90 1007.2
20260505083452 46 151 0.0 0.0 0.00 0.00 0.00 90 1007.4
20260505082948 46 130 0.0 0.0 0.00 0.00 0.00 90 1007.4
20260505082444 46 130 0.0 0.0 0.00 0.00 0.00 90 1007.4
20260505081942 46 130 0.0 0.0 0.00 0.00 0.00 90 1007.3
20260505081438 46 130 0.0 0.0 0.00 0.00 0.00 90 1007.3
20260505080934 46 130 0.0 0.0 0.00 0.00 0.00 89 1007.3
20260505080431 46 130 0.0 0.0 0.00 0.00 0.00 89 1007.1
20260505075926 47 131 0.0 0.0 0.00 0.00 0.00 89 1007.2
20260505075423 47 131 0.0 0.0 0.00 0.00 0.00 89 1007.0
20260505074921 47 131 0.0 0.0 0.00 0.00 0.00 89 1007.2
20260505074418 47 130 0.0 0.0 0.00 0.00 0.00 89 1007.1
20260505073915 47 131 0.0 0.0 0.00 0.00 0.00 89 1007.3
20260505073413 47 131 0.0 0.0 0.00 0.00 0.00 88 1007.2
20260505072910 48 131 0.0 0.0 0.00 0.00 0.00 88 1007.2
20260505072406 47 131 0.0 0.0 0.00 0.00 0.00 87 1007.0
20260505071902 48 130 0.0 0.0 0.00 0.00 0.00 86 1007.1
20260505071358 48 130 0.0 0.0 0.00 0.00 0.00 85 1006.9
20260505070857 48 129 0.0 0.0 0.00 0.00 0.00 84 1007.0
20260505070353 49 120 0.0 0.0 0.00 0.00 0.00 84 1007.1
20260505065848 49 108 0.0 0.0 0.00 0.00 0.00 83 1006.9
20260505065345 49 114 0.0 0.0 0.00 0.00 0.00 83 1007.0
20260505064842 49 118 0.0 0.0 0.00 0.00 0.00 83 1006.9
20260505064339 50 147 0.0 0.0 0.00 0.00 0.00 82 1006.8
20260505063837 50 133 0.0 0.0 0.00 0.00 0.00 82 1006.7
20260505063333 50 118 0.0 0.0 0.00 0.00 0.00 81 1006.6
20260505062830 50 111 0.0 0.0 0.00 0.00 0.00 80 1006.7
20260505062327 51 93 0.0 0.0 0.00 0.00 0.00 79 1006.8
20260505061824 52 132 0.0 0.0 0.00 0.00 0.00 78 1006.6
20260505061322 52 150 0.0 0.9 0.00 0.00 0.00 78 1006.8
20260505060819 51 170 0.9 0.9 0.00 0.00 0.00 78 1006.8
20260505060316 52 143 0.9 0.9 0.00 0.00 0.00 78 1006.6
20260505055812 52 112 1.7 2.6 0.00 0.00 0.00 77 1006.5
20260505055308 53 157 0.0 0.9 0.00 0.00 0.00 75 1006.4
20260505054806 53 160 0.0 0.0 0.00 0.00 0.00 74 1006.6
20260505054303 53 166 0.9 0.9 0.00 0.00 0.00 73 1006.6
20260505053801 53 157 0.0 0.0 0.00 0.00 0.00 74 1006.8
20260505053258 53 155 0.0 0.0 0.00 0.00 0.00 75 1006.7
20260505052754 53 156 0.0 0.0 0.00 0.00 0.00 74 1006.6
20260505052252 54 161 0.0 0.0 0.00 0.00 0.00 74 1006.5
20260505051748 54 115 0.0 0.0 0.00 0.00 0.00 73 1006.5
20260505051246 54 114 0.0 0.0 0.00 0.00 0.00 72 1006.5
20260505050744 54 113 0.0 0.0 0.00 0.00 0.00 72 1006.5
20260505050242 55 121 0.0 0.0 0.00 0.00 0.00 71 1006.6
20260505041706 59 98 0.9 0.9 0.00 0.00 0.00 60 1006.1
20260505041204 59 59 0.0 0.0 0.00 0.00 0.00 61 1006.2
20260505040701 60 115 0.0 0.0 0.00 0.00 0.00 58 1006.4
20260505040158 61 136 0.0 0.0 0.00 0.00 0.00 56 1006.2
20260505035654 61 203 0.9 0.9 0.00 0.00 0.00 55 1006.2
20260505035150 62 194 1.7 1.7 0.00 0.00 0.00 54 1006.1
20260505034647 63 168 0.0 0.0 0.00 0.00 0.00 53 1006.0
20260505034144 64 116 0.0 0.0 0.00 0.00 0.00 50 1005.9
20260505033640 64 146 0.0 0.0 0.00 0.00 0.00 50 1005.9
20260505033139 65 114 0.0 0.0 0.00 0.00 0.00 47 1005.8
20260505032637 65 99 0.0 0.9 0.00 0.00 0.00 47 1005.8
20260505032133 65 67 0.9 1.7 0.00 0.00 0.00 46 1005.7
20260505031630 65 93 0.0 0.0 0.00 0.00 0.00 47 1005.7
20260505031126 65 115 0.0 0.0 0.00 0.00 0.00 47 1005.4
20260505030623 65 133 0.0 0.0 0.00 0.00 0.00 48 1005.5
20260505030119 66 103 0.9 0.9 0.00 0.00 0.00 47 1005.3
20260505025615 66 151 0.0 0.0 0.00 0.00 0.00 46 1005.3
20260505025114 67 149 0.0 0.0 0.00 0.00 0.00 45 1005.2
20260505024611 68 330 0.9 1.7 0.00 0.00 0.00 43 1005.3
20260505024108 68 37 0.9 1.7 0.00 0.00 0.00 41 1005.3
20260505023605 68 132 0.9 1.7 0.00 0.00 0.00 41 1004.9
20260505023103 68 152 1.7 1.7 0.00 0.00 0.00 41 1005.2
20260505022600 70 66 0.9 0.9 0.00 0.00 0.00 40 1004.9
20260505022057 70 5 2.6 3.5 0.00 0.00 0.00 39 1005.3
20260505021554 71 317 2.6 2.6 0.00 0.00 0.00 38 1005.2
20260505021050 71 278 0.9 0.9 0.00 0.00 0.00 38 1005.2
20260505020550 72 175 0.9 0.9 0.00 0.00 0.00 38 1004.9
20260505020048 73 297 3.5 3.5 0.00 0.00 0.00 36 1005.1
20260505015544 73 212 1.7 2.6 0.00 0.00 0.00 35 1005.3
20260505015041 74 300 2.6 2.6 0.00 0.00 0.00 34 1005.1
20260505014538 74 305 2.6 2.6 0.00 0.00 0.00 33 1005.1
20260505014035 74 289 3.5 5.2 0.00 0.00 0.00 31 1004.8
20260505013532 75 280 2.6 3.5 0.00 0.00 0.00 32 1005.3
20260505013030 75 329 2.6 2.6 0.00 0.00 0.00 31 1005.1
20260505012528 75 318 2.6 3.5 0.00 0.00 0.00 31 1005.2
20260505012024 76 207 1.7 2.6 0.00 0.00 0.00 31 1005.1
20260505011520 76 158 0.9 1.7 0.00 0.00 0.00 31 1005.3
20260505011017 76 347 5.2 7.0 0.00 0.00 0.00 28 1005.1
20260505010512 76 132 3.5 5.2 0.00 0.00 0.00 29 1005.2
20260505010009 77 292 4.3 6.1 0.00 0.00 0.00 28 1005.1
20260505005506 77 213 5.2 7.0 0.00 0.00 0.00 29 1004.9
20260505005004 77 324 3.5 3.5 0.00 0.00 0.00 28 1005.2
20260505004501 77 234 2.6 3.5 0.00 0.00 0.00 26 1005.2
20260505003957 77 289 6.1 7.0 0.00 0.00 0.00 26 1005.2
20260505003454 77 284 5.2 8.7 0.00 0.00 0.00 25 1005.1